Weather History for KAZO - March, 2014

Change the Weather History Date:

Thursday, March 6, 2014

  Actual Average Record
Temperature  
Mean Temperature 20 °F 32 °F  
Max Temperature 31 °F 41 °F - ()
Min Temperature 8 °F 24 °F - ()
Degree Days  
Heating Degree Days 45 33  
Month to date heating degree days 303 201  
Since 1 July heating degree days 5471 4974  
Cooling Degree Days 0 0  
Month to date cooling degree days 0 0  
Year to date cooling degree days 0 0  
Moisture  
Dew Point 8 °F    
Average Humidity 63    
Maximum Humidity 80    
Minimum Humidity 46    
Precipitation  
Precipitation 0.00 in 0.08 in - ()
Month to date precipitation 0.08 0.45  
Year to date precipitation 2.61 3.69  
Sea Level Pressure  
Sea Level Pressure 30.35 in    
Wind  
Wind Speed 6 mph (ESE)    
Max Wind Speed 12 mph    
Max Gust Speed 14 mph    
Visibility 10 miles    
Events      
T = Trace of Precipitation, MM = Missing Value Source: NWS Daily Summary

Daily Weather History Graph

Daily Weather History Graph

Search for Another Location

Airport or City:

Trip Planner

Search our weather history database for the weather conditions in past years. The results will help you decide how hot, cold, wet, or windy it might be!

Date:

Astronomy

Mar. 06, 2014 Rise Set
Actual Time 7:09 AM EST 6:38 PM EST
Civil Twilight 6:41 AM EST 7:06 PM EST
Nautical Twilight 6:08 AM EST 7:38 PM EST
Astronomical Twilight 5:36 AM EST 8:11 PM EST
Moon 10:10 AM EST (3/6) No Moon Set
Length of Visible Light 12h 24m
Length of Day
11h 28m
Waxing Crescent, 32% of the Moon is Illuminated
Mar 6
Waxing Crescent
Mar 8
First Quarter
Mar 16
Full
Mar 23
Last Quarter
Mar 30
New

Hourly Weather History & Observations

Time (EST) Temp. Windchill Dew Point Humidity Pressure Visibility Wind Dir Wind Speed Gust Speed Precip Events Conditions
12:53 AM 14.0 °F 6.5 °F 5.0 °F 67% 30.51 in 10.0 mi East 4.6 mph - N/A   Clear
1:53 AM 12.9 °F 5.2 °F 5.0 °F 71% 30.50 in 10.0 mi East 4.6 mph - N/A   Clear
2:53 AM 12.0 °F 5.9 °F 3.9 °F 70% 30.50 in 10.0 mi East 3.5 mph - N/A   Clear
3:53 AM 12.0 °F 2.7 °F 3.9 °F 70% 30.48 in 10.0 mi ENE 5.8 mph - N/A   Clear
4:53 AM 10.0 °F 1.8 °F 3.9 °F 76% 30.48 in 10.0 mi NE 4.6 mph - N/A   Clear
5:53 AM 10.0 °F 1.8 °F 5.0 °F 80% 30.47 in 10.0 mi ENE 4.6 mph - N/A   Clear
6:53 AM 9.0 °F 0.6 °F 3.9 °F 80% 30.46 in 10.0 mi East 4.6 mph - N/A   Clear
7:53 AM 9.0 °F 2.4 °F 3.9 °F 80% 30.45 in 10.0 mi ENE 3.5 mph - N/A   Clear
8:53 AM 12.0 °F -0.4 °F 3.9 °F 70% 30.43 in 10.0 mi East 9.2 mph - N/A   Clear
9:53 AM 16.0 °F 3.6 °F 5.0 °F 62% 30.40 in 10.0 mi ESE 10.4 mph - N/A   Clear
10:53 AM 19.9 °F 7.9 °F 6.1 °F 55% 30.39 in 10.0 mi ESE 11.5 mph - N/A   Clear
11:53 AM 24.1 °F 15.2 °F 8.1 °F 51% 30.39 in 10.0 mi ESE 8.1 mph - N/A   Clear
12:53 PM 26.1 °F 20.5 °F 10.0 °F 51% 30.36 in 10.0 mi Variable 4.6 mph - N/A   Clear
1:53 PM 28.0 °F 20.8 °F 10.0 °F 47% 30.32 in 10.0 mi ESE 6.9 mph - N/A   Clear
2:53 PM 28.9 °F 21.9 °F 10.9 °F 47% 30.29 in 10.0 mi East 6.9 mph - N/A   Clear
3:53 PM 30.0 °F 21.7 °F 12.0 °F 47% 30.27 in 10.0 mi ESE 9.2 mph - N/A   Clear
4:53 PM 30.9 °F 24.3 °F 12.0 °F 46% 30.25 in 10.0 mi ESE 6.9 mph - N/A   Clear
5:53 PM 30.0 °F 22.4 °F 12.0 °F 47% 30.23 in 10.0 mi SE 8.1 mph - N/A   Clear
6:53 PM 27.0 °F 21.6 °F 12.0 °F 53% 30.21 in 10.0 mi SE 4.6 mph - N/A   Clear
7:53 PM 25.0 °F 18.1 °F 12.0 °F 58% 30.20 in 10.0 mi South 5.8 mph - N/A   Clear
8:53 PM 23.0 °F 18.4 °F 10.9 °F 60% 30.22 in 10.0 mi South 3.5 mph - N/A   Clear
9:53 PM 21.0 °F 16.2 °F 10.9 °F 65% 30.22 in 10.0 mi South 3.5 mph - N/A   Clear
10:53 PM 19.9 °F 12.1 °F 10.0 °F 65% 30.20 in 10.0 mi SSE 5.8 mph - N/A   Clear
11:53 PM 18.0 °F 12.7 °F 10.0 °F 71% 30.18 in 10.0 mi SSE 3.5 mph - N/A   Clear